PDT,Max TemperatureF,Mean TemperatureF,Min TemperatureF,Max Dew PointF,MeanDew PointF,Min DewpointF,Max Humidity, Mean Humidity, Min Humidity, Max Sea Level PressureIn, Mean Sea Level PressureIn, Min Sea Level PressureIn, Max VisibilityMiles, Mean VisibilityMiles, Min VisibilityMiles, Max Wind SpeedMPH, Mean Wind SpeedMPH, Max Gust SpeedMPH,PrecipitationIn, CloudCover, Events, WindDirDegrees
2013-4-1,82,71,60,41,36,28,46,31,15,30.07,30.00,29.88,10,10,10,25,10,31,0.00,1,,289
2013-4-2,87,70,54,47,36,28,57,33,13,30.03,29.97,29.90,10,10,10,10,8,,0.00,0,,266
2013-4-3,91,75,59,45,37,30,50,28,12,30.04,29.98,29.94,10,10,10,12,6,,0.00,0,,250
2013-4-4,91,74,59,42,37,30,48,24,14,30.01,29.96,29.89,10,10,10,20,6,,0.00,3,,237
2013-4-5,91,78,64,45,37,19,42,27,7,29.99,29.93,29.86,10,10,10,25,13,33,0.00,0,,258
2013-4-6,89,74,59,48,43,38,53,33,18,29.99,29.90,29.81,10,10,10,22,10,,0.00,0,,272
2013-4-7,89,72,57,47,43,37,56,35,18,29.89,29.80,29.69,10,10,10,17,5,,0.00,0,,214
2013-4-8,75,67,59,46,39,36,52,37,24,29.74,29.61,29.54,10,5,0,48,31,60,0.00,2,,245
2013-4-9,80,67,55,39,28,13,49,28,8,29.96,29.85,29.75,10,10,10,24,17,32,0.00,0,,277
2013-4-10,84,67,50,31,23,11,45,21,6,30.13,30.03,29.96,10,10,10,17,8,26,0.00,0,,317
2013-4-11,93,72,52,42,32,25,44,26,9,29.96,29.82,29.69,10,10,10,17,7,23,0.00,0,,171
2013-4-12,89,71,54,46,39,32,64,36,14,29.82,29.76,29.71,10,10,7,8,5,,0.00,0,,135
2013-4-13,96,76,57,49,37,29,49,26,10,29.81,29.75,29.65,10,10,5,30,11,34,0.00,0,,216
2013-4-14,90,72,54,54,44,34,75,40,19,29.73,29.68,29.61,10,10,10,30,16,38,0.00,0,,207
2013-4-15,82,71,61,44,41,37,52,37,21,29.78,29.74,29.70,10,10,7,36,23,43,0.00,0,,267
2013-4-16,75,64,55,38,34,28,49,35,18,29.94,29.83,29.71,10,10,3,34,27,45,0.00,0,,251
2013-4-17,77,64,53,33,22,6,43,23,7,30.12,30.04,29.96,10,10,10,23,15,29,0.00,0,,306
2013-4-18,78,63,48,28,18,8,44,20,7,30.28,30.20,30.13,10,10,10,17,7,23,0.00,0,,331
2013-4-19,84,66,48,29,18,11,29,17,8,30.21,30.09,29.96,10,10,10,9,6,,0.00,0,,215
2013-4-20,91,72,54,33,24,17,33,17,7,29.99,29.93,29.86,10,10,10,7,4,,0.00,0,,215
2013-4-21,95,76,57,44,34,26,40,23,11,29.99,29.92,29.84,10,10,10,10,5,,0.00,0,,172
2013-4-22,95,73,53,51,41,32,69,34,13,29.91,29.83,29.72,10,10,10,21,6,,0.00,0,,146
2013-4-23,91,74,57,49,32,22,67,24,8,29.93,29.84,29.75,10,10,10,18,8,16,0.00,0,,79
2013-4-24,91,74,57,58,41,25,55,33,15,29.89,29.82,29.73,10,10,9,18,8,24,0.00,1,,150
2013-4-25,87,74,62,47,41,34,48,33,16,30.00,29.92,29.83,10,10,9,26,18,34,0.00,0,,250
2013-4-26,91,74,57,53,45,36,72,40,15,30.14,30.06,30.00,10,10,10,12,5,,0.00,0,,145
2013-4-27,100,81,62,42,30,11,40,20,4,30.06,29.98,29.88,10,9,5,12,6,,0.00,0,,260
2013-4-28,105,86,66,39,27,6,28,15,4,29.89,29.81,29.71,10,9,4,14,7,,0.00,0,,262
2013-4-29,105,86,68,36,28,18,28,13,5,29.76,29.70,29.62,10,10,10,25,10,31,0.00,0,,244
2013-4-30,100,86,73,45,33,6,31,16,5,29.72,29.67,29.61,10,10,10,26,17,31,0.00,0,,228